Cloud_Cover
2 6 5 0 0 8 100 100 100 100 99 72 100 100 100 100 100 100 83 92 100 100 81 75 99 100 100 100 100 100 100 88 4 0 0 25 36 44 9 5 0 0 0 0 100
12 5 4 4 33 100 98 100 100 100 100 35 100 100 100 97 100 100 86 100 100 100 97 100 100 95 100 100 100 100 100 8 3 0 5 5 5 100 4 5 1 6 4 28 100
5 5 5 5 82 97 100 100 100 100 100 98 2 100 100 100 100 100 92 96 77 100 100 100 93 100 100 100 100 100 100 5 0 2 10 5 81 100 12 5 0 5 97 100 100
21 5 5 5 20 78 100 100 100 100 100 100 68 0 99 83 100 100 100 100 95 100 100 64 66 98 100 100 100 100 100 6 0 6 100 9 52 33 100 5 0 0 9 79 94
60 37 8 5 25 92 100 100 100 100 100 100 52 11 98 100 100 100 90 100 100 100 98 23 100 100 100 100 100 100 100 13 0 5 98 2 28 96 88 0 0 12 35 51 2
5 15 100 55 39 38 100 100 100 100 100 100 47 16 0 100 100 100 90 100 99 100 100 100 100 100 100 100 100 100 100 46 5 21 12 5 5 100 31 0 0 14 7 9 0
33 72 100 100 100 100 100 100 100 100 100 99 7 7 70 100 100 87 100 100 100 100 99 100 100 100 100 100 100 100 96 100 29 48 5 4 19 100 31 10 25 20 22 6 0
12 100 12 95 100 98 100 100 99 100 100 77 39 38 75 81 100 100 100 100 100 100 100 100 100 100 100 100 100 100 79 4 75 50 2 2 97 100 78 41 37 61 93 61 2
100 55 16 99 94 54 48 100 100 100 100 99 37 7 14 14 100 100 100 100 100 100 100 100 100 100 100 100 100 71 5 30 97 5 26 12 5 89 44 73 60 83 100 97 78
68 89 100 100 20 64 39 100 100 100 100 98 58 60 0 100 100 100 100 100 99 100 100 100 100 100 100 100 100 86 90 100 44 94 100 44 27 100 92 98 34 95 100 100 99
100 100 99 5 4 22 5 87 100 56 100 70 5 5 0 13 100 100 100 100 100 100 100 100 77 100 100 100 100 100 100 100 79 100 100 100 100 100 100 100 53 96 99 100 79
99 5 0 0 0 5 13 48 100 100 68 98 5 1 5 5 60 100 100 100 100 100 99 100 52 100 100 100 100 100 100 100 100 100 100 99 97 98 95 97 6 53 50 34 28
74 0 0 0 0 3 5 98 100 100 76 96 4 4 5 17 100 100 100 100 100 100 68 99 100 100 100 100 100 100 100 100 100 100 100 99 48 5 73 18 5 37 20 98 0
98 2 0 0 0 5 62 100 100 100 10 2 0 4 5 8 100 100 100 100 100 100 100 90 100 100 100 100 100 100 100 100 100 100 100 67 5 5 88 100 49 15 7 100 15
96 0 0 0 5 16 27 37 100 44 7 5 2 5 88 28 89 100 89 95 100 100 100 67 100 100 100 100 100 100 100 100 100 100 100 11 3 5 72 75 100 7 6 77 30
0 0 0 0 0 2 3 32 53 4 41 89 36 33 23 80 36 100 100 100 100 100 100 100 100 100 100 100 100 100 100 100 100 100 93 10 2 4 14 95 100 77 5 29 27
0 0 0 0 0 0 2 11 5 50 36 100 100 94 100 100 99 100 100 100 100 100 100 100 100 100 100 100 100 100 100 100 100 34 3 0 0 5 81 100 100 99 5 5 19
0 0 0 0 0 0 0 4 39 45 90 100 100 100 93 100 100 100 100 100 100 100 100 93 100 100 100 100 100 100 100 100 5 5 2 0 10 5 100 100 100 100 77 57 77
0 0 0 0 0 0 5 27 98 100 100 100 100 100 100 96 100 100 100 100 100 100 100 98 78 100 100 100 100 100 100 100 100 27 14 5 93 100 100 100 100 100 97 44 28
0 0 0 0 0 2 8 75 44 84 88 84 96 99 100 74 47 100 100 100 100 100 100 100 100 100 100 100 100 100 100 100 100 96 19 4 100 100 91 100 100 100 100 100 97
0 0 0 0 0 5 83 54 5 5 5 94 100 100 100 100 100 100 100 100 100 100 100 100 100 100 100 99 53 91 100 72 26 100 91 5 97 100 100 100 100 100 100 100 100
5 4 0 0 8 74 91 5 5 5 5 48 100 100 100 100 100 56 100 100 96 100 100 100 100 100 100 99 100 100 100 100 72 100 100 5 61 100 100 100 100 100 100 100 100
26 8 0 2 68 34 5 5 5 5 5 5 93 100 100 100 96 100 100 100 100 100 100 99 100 100 100 100 100 100 98 69 79 68 99 100 96 100 100 100 100 100 100 100 100
11 11 5 5 21 52 99 16 53 5 5 5 22 87 100 100 100 46 73 94 100 100 100 100 74 100 100 58 83 16 45 24 40 5 13 0 100 100 100 100 100 100 100 100 100
21 70 83 75 38 90 24 80 96 73 5 20 14 77 100 100 100 100 100 100 86 100 100 100 61 80 100 100 100 100 100 100 100 60 4 40 100 100 100 100 100 100 100 100 100
74 75 37 100 98 5 43 94 98 97 78 6 98 74 80 94 100 100 90 100 100 100 100 100 100 100 100 100 100 100 100 100 47 64 96 100 100 100 100 100 100 100 100 100 100
6 34 50 91 60 21 93 97 78 53 6 4 14 63 50 89 100 93 100 100 96 100 100 100 100 100 91 100 100 100 100 100 100 100 81 84 96 100 100 100 100 100 100 100 100